Weather History for Cody, WY

Change the Weather History Date:

Monday, December 5, 2011

  Actual Average Record
Temperature  
Mean Temperature 4 °F -  
Max Temperature 12 °F 38 °F 64 °F (1939)
Min Temperature -4 °F 16 °F -29 °F (1972)
Degree Days  
Heating Degree Days 61    
Moisture  
Dew Point -9 °F    
Average Humidity 55    
Maximum Humidity 66    
Minimum Humidity 44    
Precipitation  
Precipitation 0.00 in - - ()
Sea Level Pressure  
Sea Level Pressure 30.24 in    
Wind  
Wind Speed 5 mph (SE)    
Max Wind Speed 12 mph    
Max Gust Speed -    
Visibility 10 miles    
Events      
Averages and records for this station are not official NWS values.
T = Trace of Precipitation, MM = Missing Value Source: NWS Daily Summary

Daily Weather History Graph

Daily Weather History Graph

Search for Another Location

Airport:

Trip Planner

Search our weather history database for the weather conditions in past years. The results will help you decide how hot, cold, wet, or windy it might be!

Date:

Astronomy

Dec. 05, 2011 Rise Set
Actual Time 7:36 AM MST 4:36 PM MST
Civil Twilight 7:03 AM MST 5:09 PM MST
Nautical Twilight 6:27 AM MST 5:46 PM MST
Astronomical Twilight 5:51 AM MST 6:21 PM MST
Moon 1:42 PM MST (12/5) 2:53 AM MST (12/5)
Length of Visible Light 10h 05m
Length of Day
8h 59m
Waxing Gibbous, 80% of the Moon is Illuminated
Dec 5
Waxing Gibbous
Dec 10
Full
Dec 17
Last Quarter
Dec 24
New
Dec 31
First Quarter

Hourly Weather History & Observations

Time (MST) Temp. Windchill Dew Point Humidity Pressure Visibility Wind Dir Wind Speed Gust Speed Precip Events Conditions
12:15 AM 3.2 °F -7.8 °F -7.6 °F 61% 30.37 in 10.0 mi SE 5.8 mph - N/A   Clear
12:35 AM 1.4 °F -9.9 °F -9.4 °F 61% 30.36 in 10.0 mi SSE 5.8 mph - N/A   Clear
12:55 AM 1.4 °F -6.2 °F -11.2 °F 56% 30.35 in 10.0 mi SSE 3.5 mph - N/A   Clear
1:15 AM -0.4 °F -14.7 °F -11.2 °F 60% 30.34 in 10.0 mi SE 8.1 mph - N/A   Clear
1:35 AM -2.2 °F -15.6 °F -14.8 °F 55% 30.34 in 10.0 mi SSE 6.9 mph - N/A   Clear
1:55 AM -2.2 °F -15.6 °F -14.8 °F 55% 30.33 in 10.0 mi SSE 6.9 mph - N/A   Clear
2:15 AM -4.0 °F -14.6 °F -16.6 °F 55% 30.33 in 10.0 mi SSE 4.6 mph - N/A   Clear
2:35 AM -0.4 °F -8.3 °F -11.2 °F 60% 30.33 in 10.0 mi SSE 3.5 mph - N/A   Clear
3:15 AM 1.4 °F -6.2 °F -11.2 °F 56% 30.31 in 10.0 mi SSW 3.5 mph - N/A   Clear
3:35 AM -4.0 °F -12.4 °F -16.6 °F 55% 30.30 in 10.0 mi WNW 3.5 mph - N/A   Clear
4:35 AM -4.0 °F - -14.8 °F 60% 30.28 in 10.0 mi Calm Calm - N/A   Clear
4:55 AM -2.2 °F - -14.8 °F 55% 30.28 in 10.0 mi Calm Calm - N/A   Clear
5:15 AM -2.2 °F - -13.0 °F 60% 30.28 in 10.0 mi Calm Calm - N/A   Clear
5:35 AM -2.2 °F - -13.0 °F 60% 30.29 in 10.0 mi Calm Calm - N/A   Clear
5:55 AM -2.2 °F - -11.2 °F 66% 30.29 in 10.0 mi Calm Calm - N/A   Clear
6:15 AM -2.2 °F - -14.8 °F 55% 30.29 in 10.0 mi Calm Calm - N/A   Clear
6:35 AM -2.2 °F -10.4 °F -11.2 °F 66% 30.29 in 10.0 mi SSE 3.5 mph - N/A   Clear
6:55 AM -0.4 °F -13.4 °F -11.2 °F 60% 30.28 in 10.0 mi South 6.9 mph - N/A   Clear
7:15 AM -0.4 °F -12.0 °F -13.0 °F 55% 30.28 in 10.0 mi South 5.8 mph - N/A   Clear
7:35 AM 1.4 °F -11.3 °F -11.2 °F 56% 30.28 in 10.0 mi South 6.9 mph - N/A   Clear
7:55 AM -0.4 °F -13.4 °F -14.8 °F 51% 30.27 in 10.0 mi SSW 6.9 mph - N/A   Clear
8:15 AM 1.4 °F -11.3 °F -11.2 °F 56% 30.27 in 10.0 mi SSW 6.9 mph - N/A   Clear
8:35 AM 1.4 °F -14.5 °F -11.2 °F 56% 30.28 in 10.0 mi SE 10.4 mph - N/A   Clear
8:55 AM 3.2 °F -13.1 °F -7.6 °F 61% 30.28 in 10.0 mi SE 11.5 mph - N/A   Clear
9:15 AM 5.0 °F -9.1 °F -7.6 °F 56% 30.28 in 10.0 mi SSE 9.2 mph - N/A   Clear
9:35 AM 6.8 °F -8.6 °F -7.6 °F 52% 30.28 in 10.0 mi South 11.5 mph - N/A   Clear
9:55 AM 8.6 °F -4.7 °F -7.6 °F 48% 30.27 in 10.0 mi ESE 9.2 mph - N/A   Clear
10:15 AM 8.6 °F -5.5 °F -7.6 °F 48% 30.26 in 10.0 mi SE 10.4 mph - N/A   Clear
10:35 AM 8.6 °F -4.7 °F -7.6 °F 48% 30.26 in 10.0 mi SSE 9.2 mph - N/A   Clear
10:55 AM 10.4 °F -2.4 °F -7.6 °F 44% 30.24 in 10.0 mi South 9.2 mph - N/A   Clear
11:35 AM 10.4 °F 4.0 °F -7.6 °F 44% 30.23 in 10.0 mi ENE 3.5 mph - N/A   Clear
11:56 AM 10.4 °F 4.0 °F -5.8 °F 48% 30.23 in 10.0 mi ENE 3.5 mph - N/A   Clear
12:15 PM 10.4 °F 2.2 °F -5.8 °F 48% 30.23 in 10.0 mi ENE 4.6 mph - N/A   Clear
12:35 PM 10.4 °F 0.8 °F -4.0 °F 52% 30.22 in 10.0 mi ENE 5.8 mph - N/A   Clear
12:55 PM 10.4 °F 2.2 °F -5.8 °F 48% 30.21 in 10.0 mi East 4.6 mph - N/A   Clear
1:15 PM 12.2 °F 4.3 °F -5.8 °F 45% 30.21 in 10.0 mi ENE 4.6 mph - N/A   Clear
1:55 PM 12.2 °F 4.3 °F -2.2 °F 53% 30.21 in 10.0 mi East 4.6 mph - N/A   Clear
2:15 PM 12.2 °F 1.7 °F -2.2 °F 53% 30.20 in 10.0 mi ENE 6.9 mph - N/A   Clear
2:35 PM 12.2 °F 4.3 °F -2.2 °F 53% 30.20 in 10.0 mi East 4.6 mph - N/A   Clear
3:15 PM 12.2 °F 2.9 °F -2.2 °F 53% 30.19 in 10.0 mi SE 5.8 mph - N/A   Clear
3:35 PM 10.4 °F 0.8 °F -2.2 °F 57% 30.18 in 10.0 mi SE 5.8 mph - N/A   Clear
4:15 PM 10.4 °F 0.8 °F -4.0 °F 52% 30.16 in 10.0 mi SE 5.8 mph - N/A   Clear
4:35 PM 8.6 °F -2.6 °F -5.8 °F 52% 30.14 in 10.0 mi SE 6.9 mph - N/A   Clear
4:55 PM 6.8 °F -4.8 °F -5.8 °F 56% 30.14 in 10.0 mi East 6.9 mph - N/A   Clear
5:15 PM 6.8 °F -0.1 °F -7.6 °F 52% 30.14 in 10.0 mi East 3.5 mph - N/A   Clear
5:35 PM 5.0 °F -2.1 °F -5.8 °F 61% 30.14 in 10.0 mi WSW 3.5 mph - N/A   Clear
5:55 PM 6.8 °F - -5.8 °F 56% 30.15 in 10.0 mi Calm Calm - N/A   Clear
6:15 PM 6.8 °F - -5.8 °F 56% 30.16 in 10.0 mi Calm Calm - N/A   Clear
6:35 PM 3.2 °F - -5.8 °F 66% 30.15 in 7.0 mi Calm Calm - N/A   Clear
6:55 PM 3.2 °F - -7.6 °F 61% 30.15 in 10.0 mi Calm Calm - N/A   Clear
7:15 PM 3.2 °F -4.2 °F -9.4 °F 56% 30.14 in 10.0 mi SSE 3.5 mph - N/A   Clear
7:35 PM 1.4 °F -6.2 °F -9.4 °F 61% 30.15 in 10.0 mi South 3.5 mph - N/A   Clear
7:55 PM 1.4 °F -6.2 °F -9.4 °F 61% 30.15 in 10.0 mi South 3.5 mph - N/A   Clear
8:15 PM 1.4 °F -8.3 °F -9.4 °F 61% 30.14 in 10.0 mi SE 4.6 mph - N/A   Clear
8:35 PM 1.4 °F -6.2 °F -9.4 °F 61% 30.13 in 10.0 mi SE 3.5 mph - N/A   Clear
9:15 PM -0.4 °F - -11.2 °F 60% 30.12 in 10.0 mi Calm Calm - N/A   Partly Cloudy
9:35 PM -0.4 °F -8.3 °F -11.2 °F 60% 30.11 in 10.0 mi South 3.5 mph - N/A   Partly Cloudy
9:55 PM -0.4 °F - -11.2 °F 60% 30.10 in 10.0 mi Calm Calm - N/A   Clear
10:15 PM 1.4 °F - -9.4 °F 61% 30.10 in 10.0 mi Calm Calm - N/A   Clear
10:35 PM -0.4 °F - -11.2 °F 60% 30.09 in 9.0 mi Calm Calm - N/A   Clear
10:55 PM 1.4 °F - -11.2 °F 56% 30.09 in 10.0 mi Calm Calm - N/A   Clear
11:15 PM -0.4 °F -10.4 °F -11.2 °F 60% 30.08 in 10.0 mi SSE 4.6 mph - N/A   Clear
11:35 PM 1.4 °F -6.2 °F -9.4 °F 61% 30.08 in 10.0 mi SE 3.5 mph - N/A   Clear
11:55 PM 1.4 °F - -9.4 °F 61% 30.07 in 10.0 mi Calm Calm - N/A   Clear